Location: Boiro
(42.6475°N, 8.8834°W)
Time: 09:23:53
(UTC+02:00)

NANOSAT C BR1 - Pass Details

Date: 21 August 2022
Orbit: 582 x 600 km, 98.0° (Epoch: 25 September)

Event Time Altitude Azimuth Distance (km) Brightness Sun altitude
Rises 04:09:53 0° 23° (NNE) 2,833 ? -31.4°
Reaches altitude 10° 04:12:16 10° 34° (NE) 1,923 ? -31.2°
Enters shadow 04:14:39 25° 63° (ENE) 1,210 ? -31.0°
